FW8822 Weather Reports


time (UTC)temp
C
wind
direction
speed
KPH
gust
KPH
rain 1hr
cm
rain 24hr
cm
rain mn
cm
humidity
%
barometer
mb
20260505074600 11 215 0.0 8.0 0.00 0.00 0.00 85 1011.6
20260505073054 12 239 1.6 6.4 0.00 0.00 0.00 85 1011.5
20260505071557 12 180 1.6 8.0 0.00 0.00 0.00 85 1011.3
20260505070055 12 215 1.6 9.7 0.00 0.00 0.00 84 1011.2
20260505064551 12 212 1.6 9.7 0.00 0.00 0.00 83 1011.2
20260505063115 12 220 3.2 11.3 0.00 0.00 0.00 83 1011.1
20260505061618 12 199 3.2 11.3 0.00 0.00 0.00 82 1010.8
20260505054554 13 215 3.2 12.9 0.00 0.00 0.00 80 1010.6
20260505053059 13 203 4.8 12.9 0.00 0.00 0.00 79 1010.4
20260505051612 13 213 4.8 12.9 0.00 0.00 0.00 78 1010.2
20260505041555 16 210 4.8 14.5 0.00 0.00 0.00 72 1010.0
20260505034559 17 97 4.8 17.7 0.00 0.00 0.00 68 1009.6
20260505033101 18 187 0.0 8.0 0.00 0.00 0.00 65 1009.4
20260505031604 19 215 1.6 11.3 0.00 0.00 0.00 62 1009.4
20260505030055 20 220 1.6 8.0 0.00 0.00 0.00 59 1009.3
20260505024555 22 255 0.0 4.8 0.00 0.00 0.00 56 1009.0
20260505023059 23 0 0.0 1.6 0.00 0.00 0.00 46 1009.0
20260505021602 23 249 0.0 4.8 0.00 0.00 0.00 46 1008.8
20260505020104 23 255 0.0 3.2 0.00 0.00 0.00 49 1008.9
20260505014601 23 0 1.6 3.2 0.00 0.00 0.00 46 1008.8
20260505013105 25 278 1.6 8.0 0.00 0.00 0.00 48 1008.8
20260505011605 26 268 0.0 6.4 0.00 0.00 0.00 43 1008.9
20260505010114 26 208 1.6 6.4 0.00 0.00 0.00 41 1009.0
20260505004558 26 234 1.6 12.9 0.00 0.00 0.00 38 1008.9
20260505003100 26 189 6.4 14.5 0.00 0.00 0.00 38 1008.8
20260505001604 26 203 4.8 9.7 0.00 0.00 0.00 41 1008.9
20260504234558 26 219 1.6 8.0 0.00 0.00 0.00 39 1009.0
20260504233108 26 200 4.8 12.9 0.00 0.00 0.00 40 1008.9
20260504231604 26 92 1.6 9.7 0.00 0.00 0.00 42 1009.0
20260504230058 26 222 3.2 14.5 0.00 0.00 0.00 41 1009.3
20260504224558 25 239 3.2 12.9 0.00 0.00 0.00 43 1009.4
20260504223056 26 197 3.2 9.7 0.00 0.00 0.00 40 1009.3
20260504221558 25 196 3.2 11.3 0.00 0.00 0.00 42 1009.5
20260504220056 25 233 3.2 12.9 0.00 0.00 0.00 41 1009.4
20260504214558 25 198 1.6 11.3 0.00 0.00 0.00 43 1009.9
20260504213102 25 215 1.6 14.5 0.00 0.00 0.00 40 1009.8
20260504211556 25 183 3.2 14.5 0.00 0.00 0.00 42 1009.9
20260504210108 25 211 6.4 16.1 0.00 0.00 0.00 44 1010.0
20260504204607 24 199 4.8 17.7 0.00 0.00 0.00 43 1010.0
20260504203105 24 262 1.6 12.9 0.00 0.00 0.00 41 1009.9
20260504201551 24 157 3.2 9.7 0.00 0.00 0.00 42 1010.0
20260504200053 23 145 3.2 16.1 0.00 0.00 0.00 47 1009.9
20260504194602 23 85 4.8 14.5 0.00 0.00 0.00 51 1009.9
20260504193057 23 248 1.6 6.4 0.00 0.00 0.00 55 1010.1
20260504191555 22 265 3.2 9.7 0.00 0.00 0.00 56 1010.3
20260504190121 21 295 3.2 9.7 0.00 0.00 0.00 61 1010.4
20260504184556 21 272 3.2 8.0 0.00 0.00 0.00 59 1010.4
20260504183104 21 260 1.6 8.0 0.00 0.00 0.00 58 1010.4
20260504181555 21 270 1.6 6.4 0.00 0.00 0.00 52 1010.5
20260504180054 20 272 1.6 4.8 0.00 0.00 0.00 60 1010.6
20260504174559 20 259 3.2 8.0 0.00 0.00 0.00 59 1010.6
20260504173058 19 276 3.2 6.4 0.00 0.00 0.00 63 1010.5
20260504171553 18 282 1.6 8.0 0.00 0.00 0.00 66 1010.5
20260504130110 10 0 0.0 0.0 0.00 0.00 0.00 81 1009.1
20260504081601 12 0 0.0 0.0 0.00 0.00 0.00 66 1009.0